Weather History for Sheridan, WY

Change the Weather History Date:

Tuesday, January 17, 2012

  Actual Average Record
Temperature  
Mean Temperature 10 °F 24 °F  
Max Temperature 32 °F 36 °F 64 °F (1923)
Min Temperature -12 °F 12 °F -36 °F (1930)
Degree Days  
Heating Degree Days 55 41  
Month to date heating degree days 608 706  
Since 1 July heating degree days 3445 3889  
Cooling Degree Days 0 0  
Month to date cooling degree days 0 0  
Year to date cooling degree days 0 0  
Moisture  
Dew Point -3 °F    
Average Humidity 55    
Maximum Humidity 86    
Minimum Humidity 23    
Precipitation  
Precipitation 0.00 in 0.02 in 0.51 in (1977)
Month to date precipitation 0.18 0.29  
Year to date precipitation 0.18 0.29  
Sea Level Pressure  
Sea Level Pressure 30.10 in    
Wind  
Wind Speed 11 mph (SW)    
Max Wind Speed 43 mph    
Max Gust Speed 54 mph    
Visibility 10 miles    
Events      
T = Trace of Precipitation, MM = Missing Value Source: NWS Daily Summary

Daily Weather History Graph

Daily Weather History Graph

Search for Another Location

Airport:

Trip Planner

Search our weather history database for the weather conditions in past years. The results will help you decide how hot, cold, wet, or windy it might be!

Date:

Astronomy

Jan. 17, 2012 Rise Set
Actual Time 7:40 AM MST 4:55 PM MST
Civil Twilight 7:08 AM MST 5:27 PM MST
Nautical Twilight 6:32 AM MST 6:03 PM MST
Astronomical Twilight 5:57 AM MST 6:38 PM MST
Moon 2:02 AM MST (1/17) 11:51 AM MST (1/17)
Length of Visible Light 10h 19m
Length of Day
9h 14m
Waning Crescent, 34% of the Moon is Illuminated
Jan 17
Waning Crescent
Jan 23
New
Jan 30
First Quarter
Feb 7
Full
Feb 14
Last Quarter

Hourly Weather History & Observations

Time (MST) Temp. Windchill Dew Point Humidity Pressure Visibility Wind Dir Wind Speed Gust Speed Precip Events Conditions
12:53 AM -9.9 °F -21.5 °F -14.1 °F 82% 30.29 in 10.0 mi West 4.6 mph - N/A   Clear
1:53 AM -7.1 °F - -11.9 °F 79% 30.28 in 10.0 mi Calm Calm - N/A   Clear
2:53 AM -9.0 °F -18.2 °F -13.0 °F 83% 30.29 in 10.0 mi WSW 3.5 mph - N/A   Clear
3:53 AM -7.1 °F - -11.9 °F 79% 30.28 in 10.0 mi Calm Calm - N/A   Clear
4:53 AM -5.1 °F -13.6 °F -11.0 °F 76% 30.27 in 10.0 mi South 3.5 mph - N/A   Clear
5:53 AM -2.0 °F - -9.0 °F 72% 30.27 in 10.0 mi Calm Calm - N/A   Clear
6:53 AM 3.0 °F -9.3 °F -6.0 °F 66% 30.26 in 10.0 mi South 6.9 mph - N/A   Clear
7:53 AM 9.0 °F -0.9 °F -4.0 °F 56% 30.25 in 10.0 mi SW 5.8 mph - N/A   Clear
8:53 AM 12.9 °F 3.8 °F -2.0 °F 51% 30.24 in 10.0 mi SE 5.8 mph - N/A   Clear
9:53 AM 19.9 °F 14.9 °F 1.0 °F 44% 30.22 in 10.0 mi SE 3.5 mph - N/A   Clear
10:53 AM 25.0 °F 15.5 °F 1.9 °F 37% 30.20 in 10.0 mi WSW 9.2 mph - N/A   Clear
11:53 AM 26.1 °F 17.6 °F 3.0 °F 37% 30.16 in 10.0 mi SE 8.1 mph - N/A   Partly Cloudy
12:53 PM 28.0 °F 20.8 °F 3.9 °F 36% 30.12 in 10.0 mi WSW 6.9 mph - N/A   Scattered Clouds
1:53 PM 28.0 °F - 1.9 °F 33% 30.07 in 10.0 mi Calm Calm - N/A   Clear
2:53 PM 32.0 °F 25.6 °F 3.9 °F 31% 30.05 in 10.0 mi North 6.9 mph - N/A   Clear
3:53 PM 28.9 °F 19.8 °F -0.9 °F 28% 30.05 in 10.0 mi West 10.4 mph - N/A   Clear
4:53 PM 27.0 °F 17.3 °F -2.9 °F 27% 30.03 in 10.0 mi WSW 10.4 mph 23.0 mph N/A   Clear
5:53 PM 28.0 °F 20.8 °F -6.0 °F 23% 29.99 in 10.0 mi Variable 6.9 mph 26.5 mph N/A   Clear
6:53 PM 25.0 °F 7.3 °F 3.9 °F 41% 29.93 in 8.0 mi WSW 33.4 mph 47.2 mph N/A   Clear
7:53 PM 26.1 °F 10.1 °F -0.0 °F 32% 29.89 in 10.0 mi WSW 27.6 mph 43.7 mph N/A   Clear
8:53 PM 27.0 °F 10.3 °F -0.0 °F 31% 29.85 in 10.0 mi WSW 32.2 mph 44.9 mph N/A   Clear
9:53 PM 27.0 °F 9.8 °F -0.0 °F 31% 29.83 in 10.0 mi WSW 34.5 mph 43.7 mph N/A   Clear
10:53 PM 28.0 °F 12.5 °F -0.0 °F 30% 29.80 in 10.0 mi WSW 28.8 mph 44.9 mph N/A   Clear
11:53 PM 28.0 °F 14.3 °F 1.9 °F 33% 29.78 in 10.0 mi WSW 21.9 mph 34.5 mph N/A   Clear